Time,TemperatureF,DewpointF,PressureIn,WindDirection,WindDirectionDegrees,WindSpeedMPH,WindSpeedGustMPH,Humidity,HourlyPrecipIn,Conditions,Clouds,dailyrainin,SoftwareType,DateUTC
2013-02-03 00:02:00,8.0,3.0,-100.00,SW,230,2.0,4.0,77,-99.99,,,-99.99,,2013-02-03 06:02:00,
2013-02-03 00:11:00,8.0,3.0,-100.00,SSW,210,4.0,6.0,77,-99.99,,,-99.99,,2013-02-03 06:11:00,
2013-02-03 00:21:00,8.0,3.0,-100.00,SW,215,4.0,6.0,77,-99.99,,,-99.99,,2013-02-03 06:21:00,
2013-02-03 00:32:00,8.0,3.0,-100.00,SW,215,4.0,6.0,77,-99.99,,,-99.99,,2013-02-03 06:32:00,
2013-02-03 00:41:00,8.0,3.0,-100.00,SW,215,3.0,4.0,78,-99.99,,,-99.99,,2013-02-03 06:41:00,
2013-02-03 00:52:00,8.0,3.0,-100.00,SW,230,2.0,5.0,78,-99.99,,,-99.99,,2013-02-03 06:52:00,
2013-02-03 01:01:00,8.0,3.0,-100.00,SW,230,2.0,5.0,78,-99.99,,,-99.99,,2013-02-03 07:01:00,
2013-02-03 01:11:00,9.0,3.0,-100.00,SW,220,3.0,6.0,79,-99.99,,,-99.99,,2013-02-03 07:11:00,
2013-02-03 01:21:00,9.0,4.0,-100.00,SSW,200,4.0,5.0,79,-99.99,,,-99.99,,2013-02-03 07:21:00,
2013-02-03 01:31:00,9.0,4.0,-100.00,SSW,200,4.0,5.0,79,-99.99,,,-99.99,,2013-02-03 07:31:00,
2013-02-03 01:42:00,9.0,4.0,-100.00,SW,230,4.0,5.0,80,-99.99,,,-99.99,,2013-02-03 07:42:00,
2013-02-03 01:52:00,9.0,4.0,-100.00,WSW,250,2.0,6.0,80,-99.99,,,-99.99,,2013-02-03 07:52:00,
2013-02-03 02:01:00,9.0,4.0,-100.00,WSW,250,2.0,6.0,80,-99.99,,,-99.99,,2013-02-03 08:01:00,
2013-02-03 02:11:00,9.0,5.0,-100.00,WSW,245,2.0,4.0,81,-99.99,,,-99.99,,2013-02-03 08:11:00,
2013-02-03 02:22:00,9.0,5.0,-100.00,WSW,240,2.0,4.0,81,-99.99,,,-99.99,,2013-02-03 08:22:00,
2013-02-03 02:32:00,9.0,5.0,-100.00,WSW,240,2.0,4.0,81,-99.99,,,-99.99,,2013-02-03 08:32:00,
2013-02-03 02:41:00,9.0,5.0,-100.00,WSW,240,2.0,4.0,81,-99.99,,,-99.99,,2013-02-03 08:41:00,
2013-02-03 02:52:00,10.0,5.0,-100.00,SW,220,4.0,4.0,82,-99.99,,,-99.99,,2013-02-03 08:52:00,
2013-02-03 03:02:00,10.0,5.0,-100.00,SW,220,4.0,4.0,82,-99.99,,,-99.99,,2013-02-03 09:02:00,
2013-02-03 03:11:00,10.0,6.0,-100.00,SSW,210,1.0,4.0,82,-99.99,,,-99.99,,2013-02-03 09:11:00,
2013-02-03 03:21:00,10.0,6.0,-100.00,SW,220,3.0,6.0,83,-99.99,,,-99.99,,2013-02-03 09:21:00,
2013-02-03 03:31:00,10.0,6.0,-100.00,SW,220,3.0,6.0,83,-99.99,,,-99.99,,2013-02-03 09:31:00,
2013-02-03 03:42:00,10.0,6.0,-100.00,SW,230,3.0,4.0,83,-99.99,,,-99.99,,2013-02-03 09:42:00,
2013-02-03 03:52:00,10.0,6.0,-100.00,SW,215,2.0,4.0,84,-99.99,,,-99.99,,2013-02-03 09:52:00,
2013-02-03 04:01:00,10.0,6.0,-100.00,SW,215,2.0,4.0,84,-99.99,,,-99.99,,2013-02-03 10:01:00,
2013-02-03 04:11:00,10.0,7.0,-100.00,SW,225,2.0,5.0,84,-99.99,,,-99.99,,2013-02-03 10:11:00,
2013-02-03 04:21:00,11.0,7.0,-100.00,SW,220,4.0,6.0,85,-99.99,,,-99.99,,2013-02-03 10:21:00,
2013-02-03 04:31:00,11.0,7.0,-100.00,SW,220,4.0,6.0,85,-99.99,,,-99.99,,2013-02-03 10:31:00,
2013-02-03 04:42:00,11.0,7.0,-100.00,SW,225,3.0,4.0,85,-99.99,,,-99.99,,2013-02-03 10:42:00,
2013-02-03 04:53:00,11.0,8.0,-100.00,WSW,240,3.0,5.0,85,-99.99,,,-99.99,,2013-02-03 10:53:00,
2013-02-03 05:02:00,11.0,8.0,-100.00,WSW,240,3.0,5.0,85,-99.99,,,-99.99,,2013-02-03 11:02:00,
2013-02-03 05:11:00,11.0,8.0,-100.00,SW,220,2.0,4.0,85,-99.99,,,-99.99,,2013-02-03 11:11:00,
2013-02-03 05:22:00,11.0,8.0,-100.00,SW,230,5.0,7.0,86,-99.99,,,-99.99,,2013-02-03 11:22:00,
2013-02-03 05:32:00,11.0,8.0,-100.00,SW,230,5.0,7.0,86,-99.99,,,-99.99,,2013-02-03 11:32:00,
2013-02-03 05:42:00,11.0,8.0,-100.00,WSW,250,4.0,9.0,86,-99.99,,,-99.99,,2013-02-03 11:42:00,
2013-02-03 05:52:00,12.0,8.0,-100.00,SW,225,3.0,6.0,86,-99.99,,,-99.99,,2013-02-03 11:52:00,
2013-02-03 06:02:00,12.0,8.0,-100.00,SW,225,3.0,6.0,86,-99.99,,,-99.99,,2013-02-03 12:02:00,
2013-02-03 06:11:00,12.0,9.0,-100.00,SW,235,4.0,6.0,86,-99.99,,,-99.99,,2013-02-03 12:11:00,
2013-02-03 06:22:00,12.0,9.0,-100.00,WSW,245,3.0,8.0,86,-99.99,,,-99.99,,2013-02-03 12:22:00,
2013-02-03 06:32:00,12.0,9.0,-100.00,WSW,245,3.0,8.0,86,-99.99,,,-99.99,,2013-02-03 12:32:00,
2013-02-03 06:42:00,12.0,9.0,-100.00,WSW,255,4.0,6.0,87,-99.99,,,-99.99,,2013-02-03 12:42:00,
2013-02-03 06:53:00,12.0,10.0,-100.00,West,260,4.0,6.0,88,-99.99,,,-99.99,,2013-02-03 12:53:00,
2013-02-03 07:03:00,12.0,10.0,-100.00,West,260,4.0,6.0,88,-99.99,,,-99.99,,2013-02-03 13:03:00,
2013-02-03 07:11:00,13.0,10.0,-100.00,WSW,250,4.0,8.0,88,-99.99,,,-99.99,,2013-02-03 13:11:00,
2013-02-03 07:21:00,13.0,10.0,-100.00,West,270,3.0,6.0,89,-99.99,,,-99.99,,2013-02-03 13:21:00,
2013-02-03 07:32:00,13.0,10.0,-100.00,West,270,3.0,6.0,89,-99.99,,,-99.99,,2013-02-03 13:32:00,
2013-02-03 07:42:00,13.0,10.0,-100.00,WSW,250,2.0,5.0,89,-99.99,,,-99.99,,2013-02-03 13:42:00,
2013-02-03 07:52:00,13.0,10.0,-100.00,SW,230,2.0,5.0,89,-99.99,,,-99.99,,2013-02-03 13:52:00,
2013-02-03 08:02:00,13.0,10.0,-100.00,SW,230,2.0,5.0,89,-99.99,,,-99.99,,2013-02-03 14:02:00,
2013-02-03 08:11:00,13.0,11.0,-100.00,West,265,4.0,9.0,89,-99.99,,,-99.99,,2013-02-03 14:11:00,
2013-02-03 08:21:00,14.0,11.0,-100.00,WSW,255,3.0,8.0,90,-99.99,,,-99.99,,2013-02-03 14:21:00,
2013-02-03 08:32:00,14.0,11.0,-100.00,WSW,255,3.0,8.0,90,-99.99,,,-99.99,,2013-02-03 14:32:00,
2013-02-03 08:42:00,14.0,12.0,-100.00,WNW,290,4.0,8.0,90,-99.99,,,-99.99,,2013-02-03 14:42:00,
2013-02-03 08:52:00,14.0,12.0,-100.00,NW,310,5.0,9.0,90,-99.99,,,-99.99,,2013-02-03 14:52:00,
2013-02-03 09:03:00,14.0,12.0,-100.00,NW,310,5.0,9.0,90,-99.99,,,-99.99,,2013-02-03 15:03:00,
2013-02-03 09:11:00,14.0,12.0,-100.00,NW,310,5.0,9.0,90,-99.99,,,-99.99,,2013-02-03 15:11:00,
2013-02-03 10:00:00,17.0,13.0,-100.00,NNW,330,8.0,14.0,82,-99.99,,,-99.99,,2013-02-03 16:00:00,
2013-02-03 10:22:00,17.0,13.0,-100.00,NW,310,4.0,17.0,84,-99.99,,,-99.99,,2013-02-03 16:22:00,
2013-02-03 10:33:00,17.0,13.0,-100.00,NW,310,4.0,17.0,84,-99.99,,,-99.99,,2013-02-03 16:33:00,
2013-02-03 10:42:00,17.0,13.0,-100.00,NNW,330,8.0,14.0,82,-99.99,,,-99.99,,2013-02-03 16:42:00,
2013-02-03 10:52:00,17.0,13.0,-100.00,NNW,330,8.0,14.0,82,-99.99,,,-99.99,,2013-02-03 16:52:00,
2013-02-03 11:11:00,18.0,12.0,-100.00,NW,320,7.0,16.0,75,-99.99,,,-99.99,,2013-02-03 17:11:00,
2013-02-03 11:22:00,18.0,11.0,-100.00,NNW,330,8.0,18.0,73,-99.99,,,-99.99,,2013-02-03 17:22:00,
2013-02-03 11:32:00,18.0,11.0,-100.00,NNW,330,8.0,18.0,73,-99.99,,,-99.99,,2013-02-03 17:32:00,
2013-02-03 11:42:00,19.0,11.0,-100.00,North,355,8.0,18.0,70,-99.99,,,-99.99,,2013-02-03 17:42:00,
2013-02-03 11:52:00,18.0,9.0,-100.00,North,0,9.0,20.0,68,-99.99,,,-99.99,,2013-02-03 17:52:00,
2013-02-03 12:03:00,18.0,9.0,-100.00,North,0,9.0,20.0,68,-99.99,,,-99.99,,2013-02-03 18:03:00,
2013-02-03 12:12:00,19.0,11.0,-100.00,North,350,6.0,16.0,68,-99.99,,,-99.99,,2013-02-03 18:12:00,
2013-02-03 12:23:00,20.0,10.0,-100.00,North,0,11.0,19.0,65,-99.99,,,-99.99,,2013-02-03 18:23:00,
2013-02-03 12:33:00,20.0,10.0,-100.00,North,0,11.0,19.0,65,-99.99,,,-99.99,,2013-02-03 18:33:00,
2013-02-03 12:42:00,21.0,10.0,-100.00,NW,325,6.0,19.0,62,-99.99,,,-99.99,,2013-02-03 18:42:00,
2013-02-03 12:52:00,20.0,9.0,-100.00,WNW,290,11.0,19.0,61,-99.99,,,-99.99,,2013-02-03 18:52:00,
2013-02-03 13:02:00,20.0,9.0,-100.00,WNW,290,11.0,19.0,61,-99.99,,,-99.99,,2013-02-03 19:02:00,
2013-02-03 13:11:00,20.0,10.0,-100.00,WNW,300,11.0,19.0,63,-99.99,,,-99.99,,2013-02-03 19:11:00,
2013-02-03 13:22:00,21.0,10.0,-100.00,North,0,7.0,19.0,60,-99.99,,,-99.99,,2013-02-03 19:22:00,
2013-02-03 13:32:00,21.0,10.0,-100.00,North,0,7.0,19.0,60,-99.99,,,-99.99,,2013-02-03 19:32:00,
2013-02-03 13:42:00,20.0,8.0,-100.00,NW,305,8.0,16.0,59,-99.99,,,-99.99,,2013-02-03 19:42:00,
2013-02-03 13:52:00,22.0,10.0,-100.00,West,270,5.0,17.0,58,-99.99,,,-99.99,,2013-02-03 19:52:00,
2013-02-03 14:01:00,22.0,10.0,-100.00,West,270,5.0,17.0,58,-99.99,,,-99.99,,2013-02-03 20:01:00,
2013-02-03 14:12:00,21.0,7.0,-100.00,NNW,335,7.0,21.0,54,-99.99,,,-99.99,,2013-02-03 20:12:00,
2013-02-03 14:21:00,21.0,7.0,-100.00,WNW,295,9.0,20.0,53,-99.99,,,-99.99,,2013-02-03 20:21:00,
2013-02-03 14:33:00,21.0,7.0,-100.00,WNW,295,9.0,20.0,53,-99.99,,,-99.99,,2013-02-03 20:33:00,
2013-02-03 14:42:00,21.0,7.0,-100.00,West,280,6.0,16.0,52,-99.99,,,-99.99,,2013-02-03 20:42:00,
2013-02-03 14:52:00,22.0,7.0,-100.00,NNW,340,7.0,15.0,52,-99.99,,,-99.99,,2013-02-03 20:52:00,
2013-02-03 15:03:00,22.0,7.0,-100.00,NNW,340,7.0,15.0,52,-99.99,,,-99.99,,2013-02-03 21:03:00,
2013-02-03 15:11:00,22.0,6.0,-100.00,NW,305,8.0,18.0,50,-99.99,,,-99.99,,2013-02-03 21:11:00,
2013-02-03 15:21:00,21.0,6.0,-100.00,WNW,300,10.0,18.0,51,-99.99,,,-99.99,,2013-02-03 21:21:00,
2013-02-03 15:32:00,21.0,6.0,-100.00,WNW,300,10.0,18.0,51,-99.99,,,-99.99,,2013-02-03 21:32:00,
2013-02-03 15:42:00,21.0,6.0,-100.00,WNW,300,10.0,17.0,52,-99.99,,,-99.99,,2013-02-03 21:42:00,
2013-02-03 15:52:00,21.0,7.0,-100.00,WNW,285,6.0,14.0,53,-99.99,,,-99.99,,2013-02-03 21:52:00,
2013-02-03 16:00:00,23.0,9.0,-100.00,West,260,4.0,14.0,54,-99.99,,,-99.99,,2013-02-03 22:00:00,
2013-02-03 16:01:00,21.0,7.0,-100.00,WNW,285,6.0,14.0,53,-99.99,,,-99.99,,2013-02-03 22:01:00,
2013-02-03 16:11:00,22.0,8.0,-100.00,WNW,285,4.0,13.0,54,-99.99,,,-99.99,,2013-02-03 22:11:00,
2013-02-03 16:21:00,22.0,9.0,-100.00,West,275,5.0,14.0,56,-99.99,,,-99.99,,2013-02-03 22:21:00,
2013-02-03 16:30:00,20.0,6.0,-100.00,WNW,300,4.0,18.0,53,-99.99,,,-99.99,,2013-02-03 22:30:00,
2013-02-03 16:32:00,22.0,9.0,-100.00,West,275,5.0,14.0,56,-99.99,,,-99.99,,2013-02-03 22:32:00,
2013-02-03 16:42:00,23.0,9.0,-100.00,West,260,4.0,14.0,54,-99.99,,,-99.99,,2013-02-03 22:42:00,
2013-02-03 16:52:00,23.0,9.0,-100.00,West,260,4.0,14.0,54,-99.99,,,-99.99,,2013-02-03 22:52:00,
2013-02-03 17:12:00,20.0,6.0,-100.00,WNW,300,4.0,18.0,53,-99.99,,,-99.99,,2013-02-03 23:12:00,
2013-02-03 17:22:00,20.0,6.0,-100.00,WNW,300,4.0,18.0,53,-99.99,,,-99.99,,2013-02-03 23:22:00,
2013-02-03 17:42:00,20.0,7.0,-100.00,West,265,4.0,9.0,57,-99.99,,,-99.99,,2013-02-03 23:42:00,
2013-02-03 17:52:00,20.0,8.0,-100.00,West,270,6.0,14.0,59,-99.99,,,-99.99,,2013-02-03 23:52:00,
2013-02-03 18:02:00,20.0,8.0,-100.00,West,270,6.0,14.0,59,-99.99,,,-99.99,,2013-02-04 00:02:00,
2013-02-03 18:11:00,19.0,8.0,-100.00,West,270,4.0,12.0,60,-99.99,,,-99.99,,2013-02-04 00:11:00,
2013-02-03 18:22:00,19.0,8.0,-100.00,NW,310,5.0,11.0,61,-99.99,,,-99.99,,2013-02-04 00:22:00,
2013-02-03 18:32:00,19.0,8.0,-100.00,NW,310,5.0,11.0,61,-99.99,,,-99.99,,2013-02-04 00:32:00,
2013-02-03 18:42:00,19.0,8.0,-100.00,WNW,285,4.0,12.0,61,-99.99,,,-99.99,,2013-02-04 00:42:00,
2013-02-03 18:52:00,19.0,8.0,-100.00,WSW,245,4.0,10.0,61,-99.99,,,-99.99,,2013-02-04 00:52:00,
2013-02-03 19:01:00,19.0,8.0,-100.00,WSW,245,4.0,10.0,61,-99.99,,,-99.99,,2013-02-04 01:01:00,
2013-02-03 19:11:00,19.0,8.0,-100.00,NNW,330,2.0,9.0,61,-99.99,,,-99.99,,2013-02-04 01:11:00,
2013-02-03 19:21:00,19.0,9.0,-100.00,NW,325,4.0,9.0,62,-99.99,,,-99.99,,2013-02-04 01:21:00,
2013-02-03 19:32:00,19.0,9.0,-100.00,NW,325,4.0,9.0,62,-99.99,,,-99.99,,2013-02-04 01:32:00,
2013-02-03 19:41:00,19.0,9.0,-100.00,WNW,290,4.0,10.0,63,-99.99,,,-99.99,,2013-02-04 01:41:00,
2013-02-03 19:52:00,19.0,9.0,-100.00,WNW,285,3.0,8.0,64,-99.99,,,-99.99,,2013-02-04 01:52:00,
2013-02-03 20:02:00,19.0,9.0,-100.00,WNW,285,3.0,8.0,64,-99.99,,,-99.99,,2013-02-04 02:02:00,
2013-02-03 20:11:00,19.0,9.0,-100.00,West,265,4.0,6.0,64,-99.99,,,-99.99,,2013-02-04 02:11:00,
2013-02-03 20:21:00,19.0,10.0,-100.00,WNW,285,3.0,8.0,65,-99.99,,,-99.99,,2013-02-04 02:21:00,
2013-02-03 20:32:00,19.0,10.0,-100.00,WNW,285,3.0,8.0,65,-99.99,,,-99.99,,2013-02-04 02:32:00,
2013-02-03 20:41:00,19.0,10.0,-100.00,WSW,250,2.0,6.0,66,-99.99,,,-99.99,,2013-02-04 02:41:00,
2013-02-03 20:52:00,19.0,10.0,-100.00,West,265,2.0,6.0,66,-99.99,,,-99.99,,2013-02-04 02:52:00,
2013-02-03 21:02:00,19.0,10.0,-100.00,West,265,2.0,6.0,66,-99.99,,,-99.99,,2013-02-04 03:02:00,
2013-02-03 21:11:00,19.0,10.0,-100.00,West,280,3.0,6.0,67,-99.99,,,-99.99,,2013-02-04 03:11:00,
2013-02-03 21:21:00,20.0,11.0,-100.00,West,275,1.0,6.0,68,-99.99,,,-99.99,,2013-02-04 03:21:00,
2013-02-03 21:32:00,20.0,11.0,-100.00,West,275,1.0,6.0,68,-99.99,,,-99.99,,2013-02-04 03:32:00,
2013-02-03 21:42:00,20.0,11.0,-100.00,WNW,285,4.0,8.0,69,-99.99,,,-99.99,,2013-02-04 03:42:00,
2013-02-03 21:52:00,20.0,11.0,-100.00,West,275,3.0,9.0,70,-99.99,,,-99.99,,2013-02-04 03:52:00,
2013-02-03 22:01:00,20.0,11.0,-100.00,West,275,3.0,9.0,70,-99.99,,,-99.99,,2013-02-04 04:01:00,
2013-02-03 22:11:00,19.0,12.0,-100.00,WSW,255,3.0,8.0,74,-99.99,,,-99.99,,2013-02-04 04:11:00,
2013-02-03 22:21:00,19.0,14.0,-100.00,WSW,255,4.0,9.0,78,-99.99,,,-99.99,,2013-02-04 04:21:00,
2013-02-03 22:32:00,19.0,14.0,-100.00,WSW,255,4.0,9.0,78,-99.99,,,-99.99,,2013-02-04 04:32:00,
2013-02-03 22:42:00,19.0,14.0,-100.00,SW,230,2.0,5.0,81,-99.99,,,-99.99,,2013-02-04 04:42:00,
2013-02-03 22:52:00,19.0,15.0,-100.00,West,270,4.0,9.0,83,-99.99,,,-99.99,,2013-02-04 04:52:00,
2013-02-03 23:03:00,19.0,15.0,-100.00,West,270,4.0,9.0,83,-99.99,,,-99.99,,2013-02-04 05:03:00,
2013-02-03 23:11:00,19.0,15.0,-100.00,West,265,4.0,6.0,84,-99.99,,,-99.99,,2013-02-04 05:11:00,
2013-02-03 23:22:00,20.0,16.0,-100.00,WSW,250,2.0,5.0,86,-99.99,,,-99.99,,2013-02-04 05:22:00,
2013-02-03 23:33:00,20.0,16.0,-100.00,WSW,250,2.0,5.0,86,-99.99,,,-99.99,,2013-02-04 05:33:00,
2013-02-03 23:42:00,19.0,16.0,-100.00,WSW,250,2.0,4.0,87,-99.99,,,-99.99,,2013-02-04 05:42:00,
2013-02-03 23:52:00,20.0,17.0,-100.00,SW,230,1.0,4.0,88,-99.99,,,-99.99,,2013-02-04 05:52:00,